Time,TemperatureF,DewpointF,PressureIn,WindDirection,WindDirectionDegrees,WindSpeedMPH,WindSpeedGustMPH,Humidity,HourlyPrecipIn,Conditions,Clouds,dailyrainin,SoftwareType,DateUTC
2013-02-27 00:00:00,40.6,36.5,29.73,ENE,66,7.0,8.0,85,0.00,,---,0.94,VWS V14.01,2013-02-27 05:00:00,
2013-02-27 00:01:00,40.6,36.5,29.73,ENE,63,4.0,8.0,85,0.00,,---,0.00,VWS V14.01,2013-02-27 05:01:00,
2013-02-27 00:05:00,40.1,37.1,29.73,NNW,339,1.0,4.0,89,0.00,,---,0.94,VWS V14.01,2013-02-27 05:05:00,
2013-02-27 00:06:00,40.6,36.5,29.73,North,6,5.0,7.0,85,0.00,,---,0.00,VWS V14.01,2013-02-27 05:06:00,
2013-02-27 00:10:00,40.2,36.9,29.73,ESE,102,1.0,6.0,88,0.00,,---,0.94,VWS V14.01,2013-02-27 05:10:00,
2013-02-27 00:11:00,40.6,36.8,29.73,ENE,58,9.0,9.0,86,0.00,,---,0.00,VWS V14.01,2013-02-27 05:11:00,
2013-02-27 00:15:00,40.3,36.8,29.73,NE,43,3.0,14.0,87,0.00,,---,0.94,VWS V14.01,2013-02-27 05:15:00,
2013-02-27 00:16:00,40.5,36.7,29.73,NE,50,2.0,5.0,86,0.00,,---,0.00,VWS V14.01,2013-02-27 05:16:00,
2013-02-27 00:20:00,40.3,36.5,29.73,NNW,336,3.0,9.0,86,0.00,,---,0.94,VWS V14.01,2013-02-27 05:20:00,
2013-02-27 00:21:00,40.5,36.7,29.74,ENE,59,3.0,3.0,86,0.00,,---,0.00,VWS V14.01,2013-02-27 05:21:00,
2013-02-27 00:25:00,40.4,36.3,29.73,ENE,75,5.0,11.0,85,0.00,,---,0.94,VWS V14.01,2013-02-27 05:25:00,
2013-02-27 00:26:00,40.4,36.5,29.74,ENE,65,3.0,3.0,86,0.00,,---,0.00,VWS V14.01,2013-02-27 05:26:00,
2013-02-27 00:30:00,40.6,36.2,29.73,ENE,68,2.0,12.0,84,0.00,,---,0.94,VWS V14.01,2013-02-27 05:30:00,
2013-02-27 00:31:00,40.4,36.3,29.74,East,92,7.0,7.0,85,0.00,,---,0.00,VWS V14.01,2013-02-27 05:31:00,
2013-02-27 00:35:00,40.6,36.2,29.73,NNE,13,6.0,6.0,84,0.00,,---,0.94,VWS V14.01,2013-02-27 05:35:00,
2013-02-27 00:36:00,40.6,36.5,29.74,ENE,70,4.0,6.0,85,0.00,,---,0.00,VWS V14.01,2013-02-27 05:36:00,
2013-02-27 00:40:00,40.6,36.5,29.73,East,101,2.0,7.0,85,0.00,,---,0.94,VWS V14.01,2013-02-27 05:40:00,
2013-02-27 00:41:00,40.6,36.5,29.75,ENE,59,2.0,5.0,85,0.00,,---,0.00,VWS V14.01,2013-02-27 05:41:00,
2013-02-27 00:45:00,40.6,36.5,29.73,NE,39,3.0,6.0,85,0.00,,---,0.94,VWS V14.01,2013-02-27 05:45:00,
2013-02-27 00:46:00,40.6,36.2,29.74,ENE,58,7.0,9.0,84,0.00,,---,0.00,VWS V14.01,2013-02-27 05:46:00,
2013-02-27 00:50:00,40.6,36.5,29.73,NE,53,3.0,10.0,85,0.00,,---,0.94,VWS V14.01,2013-02-27 05:50:00,
2013-02-27 00:51:00,40.5,36.0,29.75,ENE,67,1.0,4.0,84,0.00,,---,0.00,VWS V14.01,2013-02-27 05:51:00,
2013-02-27 00:55:00,40.6,36.5,29.73,NE,44,3.0,7.0,85,0.00,,---,0.94,VWS V14.01,2013-02-27 05:55:00,
2013-02-27 00:56:00,40.5,36.0,29.75,NE,51,5.0,7.0,84,0.00,,---,0.00,VWS V14.01,2013-02-27 05:56:00,
2013-02-27 01:00:00,40.6,36.5,29.73,East,94,4.0,9.0,85,0.00,,---,0.94,VWS V14.01,2013-02-27 06:00:00,
2013-02-27 01:01:00,40.4,36.0,29.75,North,8,1.0,7.0,84,0.00,,---,0.00,VWS V14.01,2013-02-27 06:01:00,
2013-02-27 01:05:00,40.6,36.5,29.73,WNW,294,5.0,8.0,85,0.00,,---,0.00,VWS V14.01,2013-02-27 06:05:00,
2013-02-27 01:06:00,40.3,35.9,29.75,NE,46,3.0,3.0,84,0.00,,---,0.00,VWS V14.01,2013-02-27 06:06:00,
2013-02-27 01:10:00,40.6,36.8,29.73,NE,53,1.0,7.0,86,0.00,,---,0.00,VWS V14.01,2013-02-27 06:10:00,
2013-02-27 01:11:00,40.2,36.1,29.75,NE,49,4.0,5.0,85,0.00,,---,0.00,VWS V14.01,2013-02-27 06:11:00,
2013-02-27 01:15:00,40.5,36.7,29.73,ESE,122,4.0,13.0,86,0.00,,---,0.00,VWS V14.01,2013-02-27 06:15:00,
2013-02-27 01:16:00,40.1,35.7,29.75,NNE,27,5.0,8.0,84,0.00,,---,0.00,VWS V14.01,2013-02-27 06:16:00,
2013-02-27 01:20:00,40.5,36.7,29.74,SSE,150,3.0,13.0,86,0.00,,---,0.00,VWS V14.01,2013-02-27 06:20:00,
2013-02-27 01:21:00,40.0,35.6,29.75,ENE,59,3.0,7.0,84,0.00,,---,0.00,VWS V14.01,2013-02-27 06:21:00,
2013-02-27 01:25:00,40.4,36.5,29.74,ENE,72,0.0,6.0,86,0.00,,---,0.00,VWS V14.01,2013-02-27 06:25:00,
2013-02-27 01:26:00,40.0,35.3,29.75,ENE,72,7.0,11.0,83,0.00,,---,0.00,VWS V14.01,2013-02-27 06:26:00,
2013-02-27 01:30:00,40.4,36.5,29.74,NE,43,6.0,7.0,86,0.00,,---,0.00,VWS V14.01,2013-02-27 06:30:00,
2013-02-27 01:31:00,40.1,35.4,29.76,ENE,65,12.0,14.0,83,0.00,,---,0.00,VWS V14.01,2013-02-27 06:31:00,
2013-02-27 01:35:00,40.5,36.3,29.74,ENE,60,3.0,9.0,85,0.00,,---,0.00,VWS V14.01,2013-02-27 06:35:00,
2013-02-27 01:36:00,40.1,34.8,29.76,ENE,63,9.0,14.0,81,0.00,,---,0.00,VWS V14.01,2013-02-27 06:36:00,
2013-02-27 01:40:00,40.6,36.5,29.75,NE,56,3.0,6.0,85,0.00,,---,0.00,VWS V14.01,2013-02-27 06:40:00,
2013-02-27 01:41:00,40.2,34.8,29.76,NE,54,7.0,7.0,81,0.00,,---,0.00,VWS V14.01,2013-02-27 06:41:00,
2013-02-27 01:45:00,40.6,36.5,29.74,ENE,75,4.0,8.0,85,0.00,,---,0.00,VWS V14.01,2013-02-27 06:45:00,
2013-02-27 01:46:00,40.1,34.8,29.76,ENE,75,3.0,8.0,81,0.00,,---,0.00,VWS V14.01,2013-02-27 06:46:00,
2013-02-27 01:50:00,40.5,36.1,29.75,East,97,3.0,10.0,84,0.00,,---,0.00,VWS V14.01,2013-02-27 06:50:00,
2013-02-27 01:51:00,40.1,34.8,29.76,ENE,65,6.0,6.0,81,0.00,,---,0.00,VWS V14.01,2013-02-27 06:51:00,
2013-02-27 01:55:00,40.5,36.0,29.75,NE,41,2.0,10.0,84,0.00,,---,0.00,VWS V14.01,2013-02-27 06:55:00,
2013-02-27 01:56:00,40.1,34.8,29.77,NE,43,6.0,9.0,81,0.00,,---,0.00,VWS V14.01,2013-02-27 06:56:00,
2013-02-27 02:00:00,40.4,36.0,29.75,ENE,68,3.0,8.0,84,0.00,,---,0.00,VWS V14.01,2013-02-27 07:00:00,
2013-02-27 02:01:00,40.1,34.8,29.77,NW,321,4.0,4.0,81,0.00,,---,0.00,VWS V14.01,2013-02-27 07:01:00,
2013-02-27 02:05:00,40.3,35.9,29.75,ENE,60,3.0,8.0,84,0.00,,---,0.00,VWS V14.01,2013-02-27 07:05:00,
2013-02-27 02:06:00,40.0,34.7,29.77,East,84,1.0,8.0,81,0.00,,---,0.00,VWS V14.01,2013-02-27 07:06:00,
2013-02-27 02:10:00,40.2,36.1,29.75,East,85,4.0,7.0,85,0.00,,---,0.00,VWS V14.01,2013-02-27 07:10:00,
2013-02-27 02:11:00,40.0,34.7,29.76,NE,50,3.0,9.0,81,0.00,,---,0.00,VWS V14.01,2013-02-27 07:11:00,
2013-02-27 02:15:00,40.1,36.0,29.75,ENE,64,5.0,9.0,85,0.00,,---,0.00,VWS V14.01,2013-02-27 07:15:00,
2013-02-27 02:17:00,40.0,35.0,29.76,ENE,68,3.0,6.0,82,0.00,,---,0.00,VWS V14.01,2013-02-27 07:17:00,
2013-02-27 02:20:00,40.0,35.6,29.75,NE,52,7.0,11.0,84,0.00,,---,0.00,VWS V14.01,2013-02-27 07:20:00,
2013-02-27 02:22:00,39.9,34.9,29.77,NE,50,7.0,9.0,82,0.00,,---,0.00,VWS V14.01,2013-02-27 07:22:00,
2013-02-27 02:25:00,40.0,35.6,29.75,ENE,66,9.0,12.0,84,0.00,,---,0.00,VWS V14.01,2013-02-27 07:25:00,
2013-02-27 02:27:00,39.9,34.9,29.77,ENE,63,7.0,8.0,82,0.00,,---,0.00,VWS V14.01,2013-02-27 07:27:00,
2013-02-27 02:30:00,40.0,35.3,29.75,NE,34,4.0,14.0,83,0.00,,---,0.00,VWS V14.01,2013-02-27 07:30:00,
2013-02-27 02:32:00,39.9,34.9,29.77,ENE,66,5.0,5.0,82,0.00,,---,0.00,VWS V14.01,2013-02-27 07:32:00,
2013-02-27 02:35:00,40.1,35.1,29.76,ESE,115,7.0,14.0,82,0.00,,---,0.00,VWS V14.01,2013-02-27 07:35:00,
2013-02-27 02:37:00,39.8,34.8,29.77,NE,45,5.0,6.0,82,0.00,,---,0.00,VWS V14.01,2013-02-27 07:37:00,
2013-02-27 02:40:00,40.2,34.8,29.76,ENE,59,4.0,14.0,81,0.00,,---,0.00,VWS V14.01,2013-02-27 07:40:00,
2013-02-27 02:42:00,39.8,34.8,29.77,ENE,67,4.0,6.0,82,0.00,,---,0.00,VWS V14.01,2013-02-27 07:42:00,
2013-02-27 02:45:00,40.2,34.8,29.76,East,98,6.0,9.0,81,0.00,,---,0.00,VWS V14.01,2013-02-27 07:45:00,
2013-02-27 02:47:00,39.9,34.9,29.77,NNE,18,3.0,10.0,82,0.00,,---,0.00,VWS V14.01,2013-02-27 07:47:00,
2013-02-27 02:50:00,40.1,34.8,29.76,NNE,30,5.0,10.0,81,0.00,,---,0.00,VWS V14.01,2013-02-27 07:50:00,
2013-02-27 02:52:00,39.9,34.9,29.77,ENE,71,5.0,8.0,82,0.00,,---,0.00,VWS V14.01,2013-02-27 07:52:00,
2013-02-27 02:55:00,40.1,34.8,29.77,NE,48,4.0,10.0,81,0.00,,---,0.00,VWS V14.01,2013-02-27 07:55:00,
2013-02-27 02:57:00,39.9,34.5,29.77,NE,38,3.0,10.0,81,0.00,,---,0.00,VWS V14.01,2013-02-27 07:57:00,
2013-02-27 03:00:00,40.1,34.8,29.77,NE,54,3.0,10.0,81,0.00,,---,0.00,VWS V14.01,2013-02-27 08:00:00,
2013-02-27 03:02:00,39.9,34.9,29.77,ENE,73,4.0,11.0,82,0.00,,---,0.00,VWS V14.01,2013-02-27 08:02:00,
2013-02-27 03:05:00,40.0,34.7,29.77,NNE,26,0.0,9.0,81,0.00,,---,0.00,VWS V14.01,2013-02-27 08:05:00,
2013-02-27 03:07:00,39.9,34.5,29.77,ENE,70,5.0,11.0,81,0.00,,---,0.00,VWS V14.01,2013-02-27 08:07:00,
2013-02-27 03:10:00,40.0,35.0,29.77,ENE,70,4.0,12.0,82,0.00,,---,0.00,VWS V14.01,2013-02-27 08:10:00,
2013-02-27 03:12:00,39.9,34.9,29.77,ENE,72,5.0,5.0,82,0.00,,---,0.00,VWS V14.01,2013-02-27 08:12:00,
2013-02-27 03:15:00,40.0,34.7,29.76,NE,41,6.0,12.0,81,0.00,,---,0.00,VWS V14.01,2013-02-27 08:15:00,
2013-02-27 03:17:00,39.8,34.8,29.78,NE,48,5.0,7.0,82,0.00,,---,0.00,VWS V14.01,2013-02-27 08:17:00,
2013-02-27 03:20:00,39.9,34.9,29.77,NE,46,6.0,6.0,82,0.00,,---,0.00,VWS V14.01,2013-02-27 08:20:00,
2013-02-27 03:22:00,39.7,34.7,29.77,NE,52,10.0,12.0,82,0.00,,---,0.00,VWS V14.01,2013-02-27 08:22:00,
2013-02-27 03:25:00,39.9,34.9,29.77,NE,39,6.0,10.0,82,0.00,,---,0.00,VWS V14.01,2013-02-27 08:25:00,
2013-02-27 03:27:00,39.7,34.7,29.77,NE,52,6.0,9.0,82,0.00,,---,0.00,VWS V14.01,2013-02-27 08:27:00,
2013-02-27 03:30:00,39.9,34.9,29.77,NNE,22,5.0,14.0,82,0.00,,---,0.00,VWS V14.01,2013-02-27 08:30:00,
2013-02-27 03:32:00,39.7,35.0,29.78,NE,55,6.0,9.0,83,0.00,,---,0.00,VWS V14.01,2013-02-27 08:32:00,
2013-02-27 03:35:00,39.8,34.8,29.77,NE,38,4.0,8.0,82,0.00,,---,0.00,VWS V14.01,2013-02-27 08:35:00,
2013-02-27 03:37:00,39.6,34.9,29.78,East,84,2.0,11.0,83,0.00,,---,0.00,VWS V14.01,2013-02-27 08:37:00,
2013-02-27 03:40:00,39.8,34.8,29.77,ENE,57,3.0,13.0,82,0.00,,---,0.00,VWS V14.01,2013-02-27 08:40:00,
2013-02-27 03:42:00,39.6,34.9,29.77,NE,43,12.0,12.0,83,0.00,,---,0.00,VWS V14.01,2013-02-27 08:42:00,
2013-02-27 03:45:00,39.9,34.9,29.77,ENE,60,3.0,11.0,82,0.00,,---,0.00,VWS V14.01,2013-02-27 08:45:00,
2013-02-27 03:47:00,39.5,35.1,29.78,NE,41,1.0,8.0,84,0.00,,---,0.00,VWS V14.01,2013-02-27 08:47:00,
2013-02-27 03:50:00,39.8,34.8,29.77,East,80,6.0,10.0,82,0.00,,---,0.00,VWS V14.01,2013-02-27 08:50:00,
2013-02-27 03:52:00,39.5,35.1,29.77,NW,322,0.0,7.0,84,0.00,,---,0.00,VWS V14.01,2013-02-27 08:52:00,
2013-02-27 03:55:00,39.9,34.9,29.77,ENE,69,5.0,9.0,82,0.00,,---,0.00,VWS V14.01,2013-02-27 08:55:00,
2013-02-27 03:57:00,39.5,34.8,29.78,ENE,65,6.0,8.0,83,0.00,,---,0.00,VWS V14.01,2013-02-27 08:57:00,
2013-02-27 04:00:00,39.9,34.5,29.77,East,87,3.0,11.0,81,0.00,,---,0.00,VWS V14.01,2013-02-27 09:00:00,
2013-02-27 04:02:00,39.5,34.8,29.78,ENE,57,10.0,11.0,83,0.00,,---,0.00,VWS V14.01,2013-02-27 09:02:00,
2013-02-27 04:05:00,39.9,34.9,29.77,East,84,6.0,11.0,82,0.00,,---,0.00,VWS V14.01,2013-02-27 09:05:00,
2013-02-27 04:07:00,39.6,34.9,29.78,ENE,72,1.0,5.0,83,0.00,,---,0.00,VWS V14.01,2013-02-27 09:07:00,
2013-02-27 04:10:00,39.8,34.8,29.77,NNE,22,5.0,11.0,82,0.00,,---,0.00,VWS V14.01,2013-02-27 09:10:00,
2013-02-27 04:12:00,39.5,34.8,29.78,NE,37,2.0,4.0,83,0.00,,---,0.00,VWS V14.01,2013-02-27 09:12:00,
2013-02-27 04:15:00,39.8,34.8,29.77,North,8,1.0,7.0,82,0.00,,---,0.00,VWS V14.01,2013-02-27 09:15:00,
2013-02-27 04:17:00,39.5,34.8,29.78,ENE,69,4.0,5.0,83,0.00,,---,0.00,VWS V14.01,2013-02-27 09:17:00,
2013-02-27 04:20:00,39.7,34.7,29.78,ENE,58,5.0,8.0,82,0.00,,---,0.00,VWS V14.01,2013-02-27 09:20:00,
2013-02-27 04:22:00,39.5,34.8,29.78,NE,35,4.0,7.0,83,0.00,,---,0.00,VWS V14.01,2013-02-27 09:22:00,
2013-02-27 04:25:00,39.7,34.7,29.77,North,354,2.0,12.0,82,0.00,,---,0.00,VWS V14.01,2013-02-27 09:25:00,
2013-02-27 04:27:00,39.5,34.8,29.78,NNE,15,4.0,6.0,83,0.00,,---,0.00,VWS V14.01,2013-02-27 09:27:00,
2013-02-27 04:30:00,39.7,34.7,29.78,NNE,15,0.0,9.0,82,0.00,,---,0.00,VWS V14.01,2013-02-27 09:30:00,
2013-02-27 04:32:00,39.6,34.9,29.79,NNE,15,2.0,6.0,83,0.00,,---,0.00,VWS V14.01,2013-02-27 09:32:00,
2013-02-27 04:35:00,39.6,34.9,29.77,NNW,332,4.0,10.0,83,0.00,,---,0.00,VWS V14.01,2013-02-27 09:35:00,
2013-02-27 04:37:00,39.6,34.9,29.79,ENE,65,4.0,10.0,83,0.00,,---,0.00,VWS V14.01,2013-02-27 09:37:00,
2013-02-27 04:40:00,39.6,34.9,29.77,NNW,340,3.0,11.0,83,0.00,,---,0.00,VWS V14.01,2013-02-27 09:40:00,
2013-02-27 04:42:00,39.5,34.8,29.79,ENE,63,6.0,7.0,83,0.00,,---,0.00,VWS V14.01,2013-02-27 09:42:00,
2013-02-27 04:45:00,39.5,34.8,29.78,NNE,20,4.0,12.0,83,0.00,,---,0.00,VWS V14.01,2013-02-27 09:45:00,
2013-02-27 04:47:00,39.6,34.6,29.79,ENE,66,3.0,8.0,82,0.00,,---,0.00,VWS V14.01,2013-02-27 09:47:00,
2013-02-27 04:50:00,39.5,35.1,29.78,ENE,60,1.0,10.0,84,0.00,,---,0.00,VWS V14.01,2013-02-27 09:50:00,
2013-02-27 04:52:00,39.6,34.6,29.79,NNW,338,2.0,5.0,82,0.00,,---,0.00,VWS V14.01,2013-02-27 09:52:00,
2013-02-27 04:55:00,39.5,34.8,29.78,NE,38,8.0,10.0,83,0.00,,---,0.00,VWS V14.01,2013-02-27 09:55:00,
2013-02-27 04:57:00,39.7,34.7,29.79,NE,37,4.0,8.0,82,0.00,,---,0.00,VWS V14.01,2013-02-27 09:57:00,
2013-02-27 05:00:00,39.5,35.1,29.78,NE,53,2.0,8.0,84,0.00,,---,0.00,VWS V14.01,2013-02-27 10:00:00,
2013-02-27 05:02:00,39.7,34.4,29.80,North,8,4.0,5.0,81,0.00,,---,0.00,VWS V14.01,2013-02-27 10:02:00,
2013-02-27 05:05:00,39.6,34.9,29.78,NNE,20,5.0,13.0,83,0.00,,---,0.00,VWS V14.01,2013-02-27 10:05:00,
2013-02-27 05:07:00,39.7,34.4,29.80,NW,319,1.0,6.0,81,0.00,,---,0.00,VWS V14.01,2013-02-27 10:07:00,
2013-02-27 05:10:00,39.5,34.8,29.78,East,89,2.0,5.0,83,0.00,,---,0.00,VWS V14.01,2013-02-27 10:10:00,
2013-02-27 05:12:00,39.7,34.4,29.80,NE,48,6.0,7.0,81,0.00,,---,0.00,VWS V14.01,2013-02-27 10:12:00,
2013-02-27 05:15:00,39.5,34.8,29.78,NE,37,3.0,7.0,83,0.00,,---,0.00,VWS V14.01,2013-02-27 10:15:00,
2013-02-27 05:17:00,39.8,34.5,29.81,NNE,27,1.0,9.0,81,0.00,,---,0.00,VWS V14.01,2013-02-27 10:17:00,
2013-02-27 05:20:00,39.5,34.8,29.78,NNW,327,4.0,6.0,83,0.00,,---,0.00,VWS V14.01,2013-02-27 10:20:00,
2013-02-27 05:22:00,39.7,34.4,29.81,NE,44,5.0,5.0,81,0.00,,---,0.00,VWS V14.01,2013-02-27 10:22:00,
2013-02-27 05:25:00,39.5,34.8,29.78,NE,56,5.0,7.0,83,0.00,,---,0.00,VWS V14.01,2013-02-27 10:25:00,
2013-02-27 05:28:00,39.7,34.4,29.81,NW,318,4.0,6.0,81,0.00,,---,0.00,VWS V14.01,2013-02-27 10:28:00,
2013-02-27 05:30:00,39.6,34.9,29.79,ENE,65,5.0,7.0,83,0.00,,---,0.00,VWS V14.01,2013-02-27 10:30:00,
2013-02-27 05:33:00,39.8,34.1,29.81,NNW,330,4.0,6.0,80,0.00,,---,0.00,VWS V14.01,2013-02-27 10:33:00,
2013-02-27 05:35:00,39.6,34.9,29.79,NE,41,4.0,6.0,83,0.00,,---,0.00,VWS V14.01,2013-02-27 10:35:00,
2013-02-27 05:38:00,39.9,34.2,29.81,ESE,115,5.0,9.0,80,0.00,,---,0.00,VWS V14.01,2013-02-27 10:38:00,
2013-02-27 05:40:00,39.6,34.9,29.79,NE,44,1.0,10.0,83,0.00,,---,0.00,VWS V14.01,2013-02-27 10:40:00,
2013-02-27 05:43:00,39.9,33.9,29.81,ENE,57,10.0,15.0,79,0.00,,---,0.00,VWS V14.01,2013-02-27 10:43:00,
2013-02-27 05:45:00,39.6,34.6,29.79,ENE,59,3.0,12.0,82,0.00,,---,0.00,VWS V14.01,2013-02-27 10:45:00,
2013-02-27 05:48:00,39.9,33.9,29.81,ENE,67,7.0,8.0,79,0.00,,---,0.00,VWS V14.01,2013-02-27 10:48:00,
2013-02-27 05:50:00,39.6,34.6,29.79,NE,38,5.0,8.0,82,0.00,,---,0.00,VWS V14.01,2013-02-27 10:50:00,
2013-02-27 05:53:00,40.0,33.7,29.81,East,86,4.0,13.0,78,0.00,,---,0.00,VWS V14.01,2013-02-27 10:53:00,
2013-02-27 05:55:00,39.6,34.6,29.79,NNE,33,4.0,7.0,82,0.00,,---,0.00,VWS V14.01,2013-02-27 10:55:00,
2013-02-27 05:58:00,40.0,34.0,29.81,ENE,75,5.0,5.0,79,0.00,,---,0.00,VWS V14.01,2013-02-27 10:58:00,
2013-02-27 06:00:00,39.7,34.4,29.80,North,359,5.0,11.0,81,0.00,,---,0.00,VWS V14.01,2013-02-27 11:00:00,
2013-02-27 06:03:00,39.9,33.9,29.81,NNE,24,6.0,6.0,79,0.00,,---,0.00,VWS V14.01,2013-02-27 11:03:00,
2013-02-27 06:05:00,39.8,34.5,29.80,ENE,70,2.0,10.0,81,0.00,,---,0.00,VWS V14.01,2013-02-27 11:05:00,
2013-02-27 06:08:00,39.9,33.9,29.81,NNW,332,3.0,8.0,79,0.00,,---,0.00,VWS V14.01,2013-02-27 11:08:00,
2013-02-27 06:10:00,39.7,34.4,29.80,North,351,6.0,7.0,81,0.00,,---,0.00,VWS V14.01,2013-02-27 11:10:00,
2013-02-27 06:13:00,39.9,33.9,29.81,NNE,30,1.0,4.0,79,0.00,,---,0.00,VWS V14.01,2013-02-27 11:13:00,
2013-02-27 06:15:00,39.7,34.4,29.80,NNE,24,3.0,7.0,81,0.00,,---,0.00,VWS V14.01,2013-02-27 11:15:00,
2013-02-27 06:18:00,39.9,33.9,29.81,NE,44,2.0,3.0,79,0.00,,---,0.00,VWS V14.01,2013-02-27 11:18:00,
2013-02-27 06:20:00,39.8,34.5,29.81,NNW,335,2.0,9.0,81,0.00,,---,0.00,VWS V14.01,2013-02-27 11:20:00,
2013-02-27 06:23:00,39.8,33.8,29.81,NW,320,1.0,4.0,79,0.00,,---,0.00,VWS V14.01,2013-02-27 11:23:00,
2013-02-27 06:25:00,39.8,34.5,29.81,NNW,328,2.0,7.0,81,0.00,,---,0.00,VWS V14.01,2013-02-27 11:25:00,
2013-02-27 06:28:00,39.8,33.8,29.81,NE,37,1.0,8.0,79,0.00,,---,0.00,VWS V14.01,2013-02-27 11:28:00,
2013-02-27 06:30:00,39.8,34.1,29.81,NE,39,4.0,10.0,80,0.00,,---,0.00,VWS V14.01,2013-02-27 11:30:00,
2013-02-27 06:33:00,39.8,33.8,29.81,NNE,32,1.0,4.0,79,0.00,,---,0.00,VWS V14.01,2013-02-27 11:33:00,
2013-02-27 06:35:00,39.9,33.9,29.81,ENE,70,5.0,8.0,79,0.00,,---,0.00,VWS V14.01,2013-02-27 11:35:00,
2013-02-27 06:38:00,39.8,33.8,29.81,ENE,77,0.0,4.0,79,0.00,,---,0.00,VWS V14.01,2013-02-27 11:38:00,
2013-02-27 06:40:00,39.9,34.2,29.81,NNW,347,4.0,9.0,80,0.00,,---,0.00,VWS V14.01,2013-02-27 11:40:00,
2013-02-27 06:43:00,39.8,34.1,29.80,NNW,340,5.0,6.0,80,0.00,,---,0.00,VWS V14.01,2013-02-27 11:43:00,
2013-02-27 06:45:00,39.9,33.9,29.81,North,353,4.0,15.0,79,0.00,,---,0.00,VWS V14.01,2013-02-27 11:45:00,
2013-02-27 06:48:00,39.7,33.7,29.80,NE,34,0.0,3.0,79,0.00,,---,0.00,VWS V14.01,2013-02-27 11:48:00,
2013-02-27 06:50:00,39.9,33.9,29.81,ENE,57,4.0,12.0,79,0.00,,---,0.00,VWS V14.01,2013-02-27 11:50:00,
2013-02-27 06:53:00,39.7,33.7,29.80,NNE,15,0.0,3.0,79,0.00,,---,0.00,VWS V14.01,2013-02-27 11:53:00,
2013-02-27 06:55:00,40.0,34.0,29.81,NNE,33,4.0,13.0,79,0.00,,---,0.00,VWS V14.01,2013-02-27 11:55:00,
2013-02-27 06:58:00,39.7,33.7,29.81,NE,46,2.0,3.0,79,0.00,,---,0.00,VWS V14.01,2013-02-27 11:58:00,
2013-02-27 07:00:00,39.9,33.9,29.81,ENE,57,4.0,6.0,79,0.00,,---,0.00,VWS V14.01,2013-02-27 12:00:00,
2013-02-27 07:03:00,39.7,33.7,29.81,ENE,65,2.0,4.0,79,0.00,,---,0.00,VWS V14.01,2013-02-27 12:03:00,
2013-02-27 07:05:00,39.9,33.9,29.81,ENE,70,3.0,7.0,79,0.00,,---,0.00,VWS V14.01,2013-02-27 12:05:00,
2013-02-27 07:08:00,39.8,33.5,29.81,NE,40,1.0,6.0,78,0.00,,---,0.00,VWS V14.01,2013-02-27 12:08:00,
2013-02-27 07:10:00,39.9,33.9,29.81,NNW,338,2.0,8.0,79,0.00,,---,0.00,VWS V14.01,2013-02-27 12:10:00,
2013-02-27 07:13:00,39.8,33.8,29.82,SW,233,2.0,7.0,79,0.00,,---,0.00,VWS V14.01,2013-02-27 12:13:00,
2013-02-27 07:15:00,39.9,33.9,29.81,NNW,339,3.0,4.0,79,0.00,,---,0.00,VWS V14.01,2013-02-27 12:15:00,
2013-02-27 07:18:00,39.8,33.8,29.82,ENE,70,4.0,7.0,79,0.00,,---,0.00,VWS V14.01,2013-02-27 12:18:00,
2013-02-27 07:20:00,39.8,33.8,29.81,North,354,3.0,6.0,79,0.00,,---,0.00,VWS V14.01,2013-02-27 12:20:00,
2013-02-27 07:23:00,39.9,33.3,29.82,NE,45,6.0,12.0,77,0.00,,---,0.00,VWS V14.01,2013-02-27 12:23:00,
2013-02-27 07:25:00,39.8,33.8,29.81,NNE,31,0.0,4.0,79,0.00,,---,0.00,VWS V14.01,2013-02-27 12:25:00,
2013-02-27 07:28:00,39.9,33.3,29.83,NE,41,3.0,13.0,77,0.00,,---,0.00,VWS V14.01,2013-02-27 12:28:00,
2013-02-27 07:30:00,39.8,33.8,29.81,NNW,339,1.0,8.0,79,0.00,,---,0.00,VWS V14.01,2013-02-27 12:30:00,
2013-02-27 07:33:00,39.9,33.3,29.83,ESE,107,3.0,10.0,77,0.00,,---,0.00,VWS V14.01,2013-02-27 12:33:00,
2013-02-27 07:35:00,39.8,33.8,29.81,ENE,59,2.0,4.0,79,0.00,,---,0.00,VWS V14.01,2013-02-27 12:35:00,
2013-02-27 07:38:00,40.0,33.4,29.84,NE,49,2.0,7.0,77,0.00,,---,0.00,VWS V14.01,2013-02-27 12:38:00,
2013-02-27 07:40:00,39.8,34.1,29.81,NW,312,2.0,4.0,80,0.00,,---,0.00,VWS V14.01,2013-02-27 12:40:00,
2013-02-27 07:43:00,39.9,33.0,29.84,NE,52,10.0,10.0,76,0.00,,---,0.00,VWS V14.01,2013-02-27 12:43:00,
2013-02-27 07:45:00,39.7,33.7,29.80,NNE,12,2.0,6.0,79,0.00,,---,0.00,VWS V14.01,2013-02-27 12:45:00,
2013-02-27 07:48:00,40.0,33.1,29.84,ENE,68,1.0,13.0,76,0.00,,---,0.00,VWS V14.01,2013-02-27 12:48:00,
2013-02-27 07:50:00,39.7,33.7,29.81,NW,307,0.0,3.0,79,0.00,,---,0.00,VWS V14.01,2013-02-27 12:50:00,
2013-02-27 07:53:00,39.9,33.0,29.84,East,100,3.0,8.0,76,0.00,,---,0.00,VWS V14.01,2013-02-27 12:53:00,
2013-02-27 07:55:00,39.7,33.7,29.81,ENE,73,1.0,4.0,79,0.00,,---,0.00,VWS V14.01,2013-02-27 12:55:00,
2013-02-27 07:58:00,39.9,33.0,29.84,ENE,71,5.0,10.0,76,0.00,,---,0.00,VWS V14.01,2013-02-27 12:58:00,
2013-02-27 08:00:00,39.7,33.7,29.81,ENE,64,3.0,3.0,79,0.00,,---,0.00,VWS V14.01,2013-02-27 13:00:00,
2013-02-27 08:03:00,39.9,33.3,29.84,ESE,109,5.0,10.0,77,0.00,,---,0.00,VWS V14.01,2013-02-27 13:03:00,
2013-02-27 08:05:00,39.7,33.4,29.81,ENE,62,4.0,5.0,78,0.00,,---,0.00,VWS V14.01,2013-02-27 13:05:00,
2013-02-27 08:08:00,39.9,33.0,29.84,NE,52,4.0,16.0,76,0.00,,---,0.00,VWS V14.01,2013-02-27 13:08:00,
2013-02-27 08:10:00,39.7,33.7,29.82,ENE,67,6.0,6.0,79,0.00,,---,0.00,VWS V14.01,2013-02-27 13:10:00,
2013-02-27 08:13:00,40.0,32.7,29.84,NE,51,7.0,9.0,75,0.00,,---,0.00,VWS V14.01,2013-02-27 13:13:00,
2013-02-27 08:15:00,39.8,33.8,29.82,East,85,4.0,7.0,79,0.00,,---,0.00,VWS V14.01,2013-02-27 13:15:00,
2013-02-27 08:18:00,40.0,33.1,29.84,NE,43,4.0,8.0,76,0.00,,---,0.00,VWS V14.01,2013-02-27 13:18:00,
2013-02-27 08:20:00,39.8,33.5,29.83,ENE,73,3.0,11.0,78,0.00,,---,0.00,VWS V14.01,2013-02-27 13:20:00,
2013-02-27 08:23:00,40.0,33.1,29.85,East,87,4.0,12.0,76,0.00,,---,0.00,VWS V14.01,2013-02-27 13:23:00,
2013-02-27 08:25:00,39.9,33.3,29.83,NE,34,5.0,12.0,77,0.00,,---,0.00,VWS V14.01,2013-02-27 13:25:00,
2013-02-27 08:28:00,40.1,33.5,29.85,WNW,287,1.0,8.0,77,0.00,,---,0.00,VWS V14.01,2013-02-27 13:28:00,
2013-02-27 08:30:00,39.9,33.3,29.83,NE,34,6.0,13.0,77,0.00,,---,0.00,VWS V14.01,2013-02-27 13:30:00,
2013-02-27 08:33:00,40.1,33.2,29.86,NE,53,1.0,4.0,76,0.00,,---,0.00,VWS V14.01,2013-02-27 13:33:00,
2013-02-27 08:35:00,40.0,33.4,29.83,NE,56,5.0,10.0,77,0.00,,---,0.00,VWS V14.01,2013-02-27 13:35:00,
2013-02-27 08:38:00,40.1,33.2,29.86,NE,54,5.0,7.0,76,0.00,,---,0.00,VWS V14.01,2013-02-27 13:38:00,
2013-02-27 08:40:00,40.0,33.1,29.83,SE,130,6.0,12.0,76,0.00,,---,0.00,VWS V14.01,2013-02-27 13:40:00,
2013-02-27 08:43:00,40.1,32.8,29.86,NE,47,4.0,12.0,75,0.00,,---,0.00,VWS V14.01,2013-02-27 13:43:00,
2013-02-27 08:45:00,39.9,33.0,29.84,ENE,65,7.0,10.0,76,0.00,,---,0.00,VWS V14.01,2013-02-27 13:45:00,
2013-02-27 08:49:00,40.2,33.2,29.86,NE,43,5.0,8.0,76,0.00,,---,0.00,VWS V14.01,2013-02-27 13:49:00,
2013-02-27 08:50:00,40.0,33.1,29.83,NE,53,3.0,13.0,76,0.00,,---,0.00,VWS V14.01,2013-02-27 13:50:00,
2013-02-27 08:54:00,40.2,33.2,29.86,NE,39,1.0,4.0,76,0.00,,---,0.00,VWS V14.01,2013-02-27 13:54:00,
2013-02-27 08:55:00,39.9,33.0,29.84,ENE,78,4.0,11.0,76,0.00,,---,0.00,VWS V14.01,2013-02-27 13:55:00,
2013-02-27 08:59:00,40.2,33.2,29.86,NE,37,0.0,4.0,76,0.00,,---,0.00,VWS V14.01,2013-02-27 13:59:00,
2013-02-27 09:00:00,39.9,33.0,29.84,ENE,61,10.0,10.0,76,0.00,,---,0.00,VWS V14.01,2013-02-27 14:00:00,
2013-02-27 09:04:00,40.2,33.2,29.87,NE,38,5.0,6.0,76,0.00,,---,0.00,VWS V14.01,2013-02-27 14:04:00,
2013-02-27 09:05:00,39.9,33.0,29.84,NNE,30,9.0,16.0,76,0.00,,---,0.00,VWS V14.01,2013-02-27 14:05:00,
2013-02-27 09:09:00,40.3,33.3,29.87,ENE,66,2.0,3.0,76,0.00,,---,0.00,VWS V14.01,2013-02-27 14:09:00,
2013-02-27 09:10:00,39.9,33.0,29.84,SE,131,3.0,16.0,76,0.00,,---,0.00,VWS V14.01,2013-02-27 14:10:00,
2013-02-27 09:14:00,40.3,33.3,29.87,ENE,69,0.0,8.0,76,0.00,,---,0.00,VWS V14.01,2013-02-27 14:14:00,
2013-02-27 09:15:00,40.0,33.1,29.84,NE,39,4.0,10.0,76,0.00,,---,0.00,VWS V14.01,2013-02-27 14:15:00,
2013-02-27 09:19:00,40.4,33.5,29.87,NW,311,2.0,5.0,76,0.00,,---,0.00,VWS V14.01,2013-02-27 14:19:00,
2013-02-27 09:20:00,40.0,33.1,29.84,East,91,10.0,10.0,76,0.00,,---,0.00,VWS V14.01,2013-02-27 14:20:00,
2013-02-27 09:24:00,40.4,33.1,29.87,ENE,75,4.0,6.0,75,0.00,,---,0.00,VWS V14.01,2013-02-27 14:24:00,
2013-02-27 09:25:00,40.0,33.1,29.85,ESE,104,8.0,12.0,76,0.00,,---,0.00,VWS V14.01,2013-02-27 14:25:00,
2013-02-27 09:29:00,40.4,33.5,29.88,NE,44,1.0,4.0,76,0.00,,---,0.00,VWS V14.01,2013-02-27 14:29:00,
2013-02-27 09:30:00,40.1,33.2,29.85,ENE,72,2.0,9.0,76,0.00,,---,0.00,VWS V14.01,2013-02-27 14:30:00,
2013-02-27 09:34:00,40.5,33.2,29.88,NE,48,4.0,7.0,75,0.00,,---,0.00,VWS V14.01,2013-02-27 14:34:00,
2013-02-27 09:35:00,40.1,33.2,29.86,ESE,113,6.0,8.0,76,0.00,,---,0.00,VWS V14.01,2013-02-27 14:35:00,
2013-02-27 09:39:00,40.6,33.3,29.88,ENE,71,6.0,7.0,75,0.00,,---,0.00,VWS V14.01,2013-02-27 14:39:00,
2013-02-27 09:40:00,40.1,33.2,29.86,NE,41,0.0,7.0,76,0.00,,---,0.00,VWS V14.01,2013-02-27 14:40:00,
2013-02-27 09:44:00,40.6,33.3,29.88,East,79,3.0,8.0,75,0.00,,---,0.00,VWS V14.01,2013-02-27 14:44:00,
2013-02-27 09:45:00,40.1,33.2,29.86,East,96,6.0,12.0,76,0.00,,---,0.00,VWS V14.01,2013-02-27 14:45:00,
2013-02-27 09:49:00,40.7,33.4,29.88,NE,52,2.0,6.0,75,0.00,,---,0.00,VWS V14.01,2013-02-27 14:49:00,
2013-02-27 09:50:00,40.2,33.2,29.86,NE,48,4.0,8.0,76,0.00,,---,0.00,VWS V14.01,2013-02-27 14:50:00,
2013-02-27 09:54:00,40.8,33.8,29.88,ENE,59,1.0,4.0,76,0.00,,---,0.00,VWS V14.01,2013-02-27 14:54:00,
2013-02-27 09:55:00,40.2,33.2,29.86,NNW,327,0.0,4.0,76,0.00,,---,0.00,VWS V14.01,2013-02-27 14:55:00,
2013-02-27 09:59:00,40.8,33.5,29.88,NE,50,8.0,9.0,75,0.00,,---,0.00,VWS V14.01,2013-02-27 14:59:00,
2013-02-27 10:00:00,40.2,33.2,29.86,ENE,72,5.0,7.0,76,0.00,,---,0.00,VWS V14.01,2013-02-27 15:00:00,
2013-02-27 10:04:00,40.8,33.5,29.88,NNW,339,2.0,7.0,75,0.00,,---,0.00,VWS V14.01,2013-02-27 15:04:00,
2013-02-27 10:05:00,40.2,32.9,29.87,East,87,2.0,6.0,75,0.00,,---,0.00,VWS V14.01,2013-02-27 15:05:00,
2013-02-27 10:09:00,41.0,34.0,29.88,NNE,31,1.0,5.0,76,0.00,,---,0.00,VWS V14.01,2013-02-27 15:09:00,
2013-02-27 10:10:00,40.3,33.3,29.87,North,8,5.0,5.0,76,0.00,,---,0.00,VWS V14.01,2013-02-27 15:10:00,
2013-02-27 10:14:00,41.1,33.8,29.88,NE,56,9.0,14.0,75,0.00,,---,0.00,VWS V14.01,2013-02-27 15:14:00,
2013-02-27 10:15:00,40.3,33.3,29.87,East,80,0.0,8.0,76,0.00,,---,0.00,VWS V14.01,2013-02-27 15:15:00,
2013-02-27 10:19:00,41.1,33.5,29.88,NE,52,4.0,10.0,74,0.00,,---,0.00,VWS V14.01,2013-02-27 15:19:00,
2013-02-27 10:20:00,40.4,33.5,29.87,NE,53,1.0,5.0,76,0.00,,---,0.00,VWS V14.01,2013-02-27 15:20:00,
2013-02-27 10:24:00,41.2,33.5,29.88,ENE,66,3.0,12.0,74,0.00,,---,0.00,VWS V14.01,2013-02-27 15:24:00,
2013-02-27 10:25:00,40.4,33.1,29.87,ENE,65,2.0,6.0,75,0.00,,---,0.00,VWS V14.01,2013-02-27 15:25:00,
2013-02-27 10:29:00,41.3,33.7,29.87,NE,42,5.0,8.0,74,0.00,,---,0.00,VWS V14.01,2013-02-27 15:29:00,
2013-02-27 10:30:00,40.4,33.5,29.88,ESE,120,2.0,4.0,76,0.00,,---,0.00,VWS V14.01,2013-02-27 15:30:00,
2013-02-27 10:34:00,41.5,33.8,29.87,East,81,0.0,6.0,74,0.00,,---,0.00,VWS V14.01,2013-02-27 15:34:00,
2013-02-27 10:35:00,40.5,33.2,29.88,East,94,1.0,7.0,75,0.00,,---,0.00,VWS V14.01,2013-02-27 15:35:00,
2013-02-27 10:39:00,41.6,33.6,29.87,East,90,2.0,10.0,73,0.00,,---,0.00,VWS V14.01,2013-02-27 15:39:00,
2013-02-27 10:40:00,40.6,33.3,29.88,ENE,70,6.0,7.0,75,0.00,,---,0.00,VWS V14.01,2013-02-27 15:40:00,
2013-02-27 10:44:00,41.6,33.6,29.88,NNE,20,3.0,8.0,73,0.00,,---,0.00,VWS V14.01,2013-02-27 15:44:00,
2013-02-27 10:45:00,40.7,33.4,29.88,NE,50,4.0,8.0,75,0.00,,---,0.00,VWS V14.01,2013-02-27 15:45:00,
2013-02-27 10:49:00,41.6,33.6,29.88,NNW,338,3.0,7.0,73,0.00,,---,0.00,VWS V14.01,2013-02-27 15:49:00,
2013-02-27 10:50:00,40.7,33.4,29.88,NE,39,4.0,6.0,75,0.00,,---,0.00,VWS V14.01,2013-02-27 15:50:00,
2013-02-27 10:54:00,41.7,33.7,29.87,NE,48,10.0,12.0,73,0.00,,---,0.00,VWS V14.01,2013-02-27 15:54:00,
2013-02-27 10:55:00,40.8,33.8,29.88,ENE,73,3.0,7.0,76,0.00,,---,0.00,VWS V14.01,2013-02-27 15:55:00,
2013-02-27 10:59:00,41.6,33.6,29.87,ESE,105,5.0,9.0,73,0.00,,---,0.00,VWS V14.01,2013-02-27 15:59:00,
2013-02-27 11:00:00,40.8,33.5,29.88,ENE,69,2.0,9.0,75,0.00,,---,0.00,VWS V14.01,2013-02-27 16:00:00,
2013-02-27 11:04:00,41.6,33.9,29.88,NNW,336,4.0,8.0,74,0.00,,---,0.00,VWS V14.01,2013-02-27 16:04:00,
2013-02-27 11:05:00,40.9,33.6,29.88,ENE,77,5.0,7.0,75,0.00,,---,0.00,VWS V14.01,2013-02-27 16:05:00,
2013-02-27 11:09:00,41.8,33.8,29.87,NNW,342,6.0,8.0,73,0.00,,---,0.00,VWS V14.01,2013-02-27 16:09:00,
2013-02-27 11:10:00,41.0,33.7,29.88,East,92,2.0,5.0,75,0.00,,---,0.00,VWS V14.01,2013-02-27 16:10:00,
2013-02-27 11:14:00,41.9,34.2,29.87,North,349,0.0,11.0,74,0.00,,---,0.00,VWS V14.01,2013-02-27 16:14:00,
2013-02-27 11:15:00,41.1,33.5,29.88,NE,45,4.0,14.0,74,0.00,,---,0.00,VWS V14.01,2013-02-27 16:15:00,
2013-02-27 11:19:00,42.2,34.5,29.87,East,83,2.0,4.0,74,0.00,,---,0.00,VWS V14.01,2013-02-27 16:19:00,
2013-02-27 11:20:00,41.2,33.5,29.88,ENE,75,12.0,12.0,74,0.00,,---,0.00,VWS V14.01,2013-02-27 16:20:00,
2013-02-27 11:24:00,42.3,34.3,29.87,NNW,330,6.0,9.0,73,0.00,,---,0.00,VWS V14.01,2013-02-27 16:24:00,
2013-02-27 11:25:00,41.2,33.5,29.88,ENE,58,6.0,12.0,74,0.00,,---,0.00,VWS V14.01,2013-02-27 16:25:00,
2013-02-27 11:29:00,42.5,34.1,29.87,NNW,338,5.0,8.0,72,0.00,,---,0.00,VWS V14.01,2013-02-27 16:29:00,
2013-02-27 11:30:00,41.3,33.7,29.87,NW,321,1.0,8.0,74,0.00,,---,0.00,VWS V14.01,2013-02-27 16:30:00,
2013-02-27 11:34:00,42.6,34.2,29.87,North,359,2.0,10.0,72,0.00,,---,0.00,VWS V14.01,2013-02-27 16:34:00,
2013-02-27 11:35:00,41.6,34.3,29.87,NE,53,9.0,10.0,75,0.00,,---,0.00,VWS V14.01,2013-02-27 16:35:00,
2013-02-27 11:39:00,42.7,34.3,29.87,NW,325,0.0,7.0,72,0.00,,---,0.00,VWS V14.01,2013-02-27 16:39:00,
2013-02-27 11:40:00,41.6,33.6,29.87,East,79,6.0,10.0,73,0.00,,---,0.00,VWS V14.01,2013-02-27 16:40:00,
2013-02-27 11:44:00,42.9,34.2,29.87,NNE,32,4.0,7.0,71,0.00,,---,0.00,VWS V14.01,2013-02-27 16:44:00,
2013-02-27 11:45:00,41.6,33.6,29.88,ENE,74,3.0,8.0,73,0.00,,---,0.00,VWS V14.01,2013-02-27 16:45:00,
2013-02-27 11:49:00,43.1,34.7,29.87,ENE,65,4.0,11.0,72,0.00,,---,0.00,VWS V14.01,2013-02-27 16:49:00,
2013-02-27 11:50:00,41.6,33.6,29.88,NNW,343,1.0,7.0,73,0.00,,---,0.00,VWS V14.01,2013-02-27 16:50:00,
2013-02-27 11:54:00,43.2,34.1,29.87,ENE,60,3.0,8.0,70,0.00,,---,0.00,VWS V14.01,2013-02-27 16:54:00,
2013-02-27 11:55:00,41.6,33.6,29.88,ESE,120,2.0,12.0,73,0.00,,---,0.00,VWS V14.01,2013-02-27 16:55:00,
2013-02-27 11:59:00,43.5,34.7,29.87,NE,41,3.0,4.0,71,0.00,,---,0.00,VWS V14.01,2013-02-27 16:59:00,
2013-02-27 12:00:00,41.6,33.6,29.87,East,89,4.0,9.0,73,0.00,,---,0.00,VWS V14.01,2013-02-27 17:00:00,
2013-02-27 12:04:00,43.5,34.4,29.87,ENE,65,7.0,10.0,70,0.00,,---,0.00,VWS V14.01,2013-02-27 17:04:00,
2013-02-27 12:05:00,41.6,33.9,29.88,ENE,68,1.0,8.0,74,0.00,,---,0.00,VWS V14.01,2013-02-27 17:05:00,
2013-02-27 12:09:00,43.5,34.7,29.87,WNW,293,1.0,9.0,71,0.00,,---,0.00,VWS V14.01,2013-02-27 17:09:00,
2013-02-27 12:10:00,41.8,33.8,29.87,NW,319,3.0,12.0,73,0.00,,---,0.00,VWS V14.01,2013-02-27 17:10:00,
2013-02-27 12:14:00,43.9,34.8,29.87,ENE,60,5.0,7.0,70,0.00,,---,0.00,VWS V14.01,2013-02-27 17:14:00,
2013-02-27 12:15:00,42.0,34.3,29.87,NE,47,3.0,11.0,74,0.00,,---,0.00,VWS V14.01,2013-02-27 17:15:00,
2013-02-27 12:19:00,44.0,35.2,29.87,NNE,18,7.0,8.0,71,0.00,,---,0.00,VWS V14.01,2013-02-27 17:19:00,
2013-02-27 12:20:00,42.2,34.2,29.88,North,6,9.0,10.0,73,0.00,,---,0.00,VWS V14.01,2013-02-27 17:20:00,
2013-02-27 12:24:00,44.0,34.9,29.87,NE,45,1.0,10.0,70,0.00,,---,0.00,VWS V14.01,2013-02-27 17:24:00,
2013-02-27 12:25:00,42.4,34.4,29.87,ESE,111,4.0,9.0,73,0.00,,---,0.00,VWS V14.01,2013-02-27 17:25:00,
2013-02-27 12:29:00,44.7,35.2,29.86,ENE,67,6.0,6.0,69,0.00,,---,0.00,VWS V14.01,2013-02-27 17:29:00,
2013-02-27 12:30:00,42.5,34.1,29.87,NE,41,2.0,10.0,72,0.00,,---,0.00,VWS V14.01,2013-02-27 17:30:00,
2013-02-27 12:34:00,44.3,34.4,29.86,NE,49,9.0,12.0,68,0.00,,---,0.00,VWS V14.01,2013-02-27 17:34:00,
2013-02-27 12:35:00,42.6,34.2,29.87,NW,319,2.0,10.0,72,0.00,,---,0.00,VWS V14.01,2013-02-27 17:35:00,
2013-02-27 12:39:00,44.6,34.7,29.86,NE,56,3.0,10.0,68,0.00,,---,0.00,VWS V14.01,2013-02-27 17:39:00,
2013-02-27 12:40:00,42.7,34.3,29.87,NNW,344,3.0,7.0,72,0.00,,---,0.00,VWS V14.01,2013-02-27 17:40:00,
2013-02-27 12:44:00,44.7,34.4,29.86,NE,52,5.0,13.0,67,0.00,,---,0.00,VWS V14.01,2013-02-27 17:44:00,
2013-02-27 12:45:00,42.9,34.2,29.88,NNE,20,3.0,7.0,71,0.00,,---,0.00,VWS V14.01,2013-02-27 17:45:00,
2013-02-27 12:49:00,45.1,34.4,29.85,East,94,3.0,8.0,66,0.00,,---,0.00,VWS V14.01,2013-02-27 17:49:00,
2013-02-27 12:50:00,43.2,34.5,29.87,NE,56,3.0,11.0,71,0.00,,---,0.00,VWS V14.01,2013-02-27 17:50:00,
2013-02-27 12:54:00,45.1,34.8,29.85,NW,323,7.0,9.0,67,0.00,,---,0.00,VWS V14.01,2013-02-27 17:54:00,
2013-02-27 12:55:00,43.2,34.5,29.87,ENE,66,2.0,8.0,71,0.00,,---,0.00,VWS V14.01,2013-02-27 17:55:00,
2013-02-27 12:59:00,45.6,35.7,29.85,NE,46,6.0,9.0,68,0.00,,---,0.00,VWS V14.01,2013-02-27 17:59:00,
2013-02-27 13:00:00,43.6,34.8,29.87,ENE,73,4.0,5.0,71,0.00,,---,0.00,VWS V14.01,2013-02-27 18:00:00,
2013-02-27 13:04:00,45.6,34.9,29.84,West,276,1.0,8.0,66,0.00,,---,0.00,VWS V14.01,2013-02-27 18:04:00,
2013-02-27 13:05:00,43.5,34.4,29.87,NE,44,2.0,10.0,70,0.00,,---,0.00,VWS V14.01,2013-02-27 18:05:00,
2013-02-27 13:10:00,45.5,34.8,29.84,North,358,3.0,3.0,66,0.00,,---,0.00,VWS V14.01,2013-02-27 18:10:00,
2013-02-27 13:15:00,45.3,34.6,29.84,SSE,150,2.0,6.0,66,0.00,,---,0.00,VWS V14.01,2013-02-27 18:15:00,
2013-02-27 13:20:00,45.6,35.3,29.84,ESE,111,6.0,7.0,67,0.00,,---,0.00,VWS V14.01,2013-02-27 18:20:00,
2013-02-27 13:25:00,46.1,35.4,29.84,NE,36,3.0,4.0,66,0.00,,---,0.00,VWS V14.01,2013-02-27 18:25:00,
2013-02-27 13:30:00,47.1,36.0,29.83,ENE,69,6.0,8.0,65,0.00,,---,0.00,VWS V14.01,2013-02-27 18:30:00,
2013-02-27 13:35:00,47.9,35.9,29.83,SE,128,6.0,11.0,63,0.00,,---,0.00,VWS V14.01,2013-02-27 18:35:00,
2013-02-27 13:40:00,48.4,36.4,29.83,East,79,1.0,7.0,63,0.00,,---,0.00,VWS V14.01,2013-02-27 18:40:00,
2013-02-27 13:45:00,49.1,35.8,29.83,ENE,76,12.0,14.0,60,0.00,,---,0.00,VWS V14.01,2013-02-27 18:45:00,
2013-02-27 13:50:00,49.1,36.2,29.82,ENE,76,5.0,10.0,61,0.00,,---,0.00,VWS V14.01,2013-02-27 18:50:00,
2013-02-27 13:55:00,49.5,36.2,29.82,NE,46,4.0,11.0,60,0.00,,---,0.00,VWS V14.01,2013-02-27 18:55:00,
2013-02-27 14:00:00,49.4,35.7,29.82,NNW,341,4.0,10.0,59,0.00,,---,0.00,VWS V14.01,2013-02-27 19:00:00,
2013-02-27 14:05:00,49.6,35.9,29.81,North,6,5.0,15.0,59,0.00,,---,0.00,VWS V14.01,2013-02-27 19:05:00,
2013-02-27 14:10:00,49.3,35.6,29.81,North,11,5.0,19.0,59,0.00,,---,0.00,VWS V14.01,2013-02-27 19:10:00,
2013-02-27 14:15:00,49.5,36.6,29.81,ENE,62,2.0,8.0,61,0.00,,---,0.00,VWS V14.01,2013-02-27 19:15:00,
2013-02-27 14:20:00,50.2,36.0,29.80,WNW,284,5.0,13.0,58,0.00,,---,0.00,VWS V14.01,2013-02-27 19:20:00,
2013-02-27 14:25:00,50.8,36.1,29.80,North,354,11.0,19.0,57,0.00,,---,0.00,VWS V14.01,2013-02-27 19:25:00,
2013-02-27 14:30:00,50.5,35.4,29.81,ENE,75,3.0,14.0,56,0.00,,---,0.00,VWS V14.01,2013-02-27 19:30:00,
2013-02-27 14:35:00,50.8,35.7,29.80,North,1,8.0,14.0,56,0.00,,---,0.00,VWS V14.01,2013-02-27 19:35:00,
2013-02-27 14:40:00,51.1,35.5,29.80,North,11,14.0,18.0,55,0.00,,---,0.00,VWS V14.01,2013-02-27 19:40:00,
2013-02-27 14:45:00,51.5,36.3,29.80,ENE,65,17.0,18.0,56,0.00,,---,0.00,VWS V14.01,2013-02-27 19:45:00,
2013-02-27 14:50:00,51.3,35.2,29.80,NE,39,5.0,13.0,54,0.00,,---,0.00,VWS V14.01,2013-02-27 19:50:00,
2013-02-27 14:55:00,51.0,35.9,29.80,NE,52,5.0,9.0,56,0.00,,---,0.00,VWS V14.01,2013-02-27 19:55:00,
2013-02-27 15:00:00,51.6,36.0,29.80,North,349,12.0,13.0,55,0.00,,---,0.00,VWS V14.01,2013-02-27 20:00:00,
2013-02-27 15:05:00,51.8,35.2,29.79,NW,305,4.0,16.0,53,0.00,,---,0.00,VWS V14.01,2013-02-27 20:05:00,
2013-02-27 15:10:00,51.8,35.2,29.79,East,87,5.0,12.0,53,0.00,,---,0.00,VWS V14.01,2013-02-27 20:10:00,
2013-02-27 15:15:00,52.5,36.8,29.79,ENE,73,5.0,13.0,55,0.00,,---,0.00,VWS V14.01,2013-02-27 20:15:00,
2013-02-27 15:20:00,52.4,35.3,29.80,NNW,345,9.0,16.0,52,0.00,,---,0.00,VWS V14.01,2013-02-27 20:20:00,
2013-02-27 15:25:00,51.9,35.3,29.79,NNE,23,3.0,11.0,53,0.00,,---,0.00,VWS V14.01,2013-02-27 20:25:00,
2013-02-27 15:30:00,52.6,36.0,29.79,ENE,78,6.0,15.0,53,0.00,,---,0.00,VWS V14.01,2013-02-27 20:30:00,
2013-02-27 15:35:00,53.0,35.9,29.79,North,352,5.0,17.0,52,0.00,,---,0.00,VWS V14.01,2013-02-27 20:35:00,
2013-02-27 15:40:00,53.2,35.1,29.79,NE,51,8.0,19.0,50,0.00,,---,0.00,VWS V14.01,2013-02-27 20:40:00,
2013-02-27 15:45:00,53.1,35.5,29.80,NE,53,3.0,14.0,51,0.00,,---,0.00,VWS V14.01,2013-02-27 20:45:00,
2013-02-27 15:50:00,52.6,35.5,29.80,ENE,71,6.0,13.0,52,0.00,,---,0.00,VWS V14.01,2013-02-27 20:50:00,
2013-02-27 15:55:00,52.5,35.9,29.80,NNW,338,0.0,10.0,53,0.00,,---,0.00,VWS V14.01,2013-02-27 20:55:00,
2013-02-27 16:00:00,52.7,35.6,29.79,ENE,63,9.0,13.0,52,0.00,,---,0.00,VWS V14.01,2013-02-27 21:00:00,
2013-02-27 16:05:00,53.2,36.0,29.79,ENE,77,6.0,14.0,52,0.00,,---,0.00,VWS V14.01,2013-02-27 21:05:00,
2013-02-27 16:10:00,53.6,35.9,29.79,North,6,7.0,15.0,51,0.00,,---,0.00,VWS V14.01,2013-02-27 21:10:00,
2013-02-27 16:15:00,53.7,36.5,29.79,North,6,6.0,10.0,52,0.00,,---,0.00,VWS V14.01,2013-02-27 21:15:00,
2013-02-27 16:20:00,54.3,36.1,29.79,ENE,68,3.0,17.0,50,0.00,,---,0.00,VWS V14.01,2013-02-27 21:20:00,
2013-02-27 16:25:00,54.3,36.1,29.79,NNE,22,13.0,14.0,50,0.00,,---,0.00,VWS V14.01,2013-02-27 21:25:00,
2013-02-27 16:30:00,53.8,36.1,29.79,ENE,65,6.0,18.0,51,0.00,,---,0.00,VWS V14.01,2013-02-27 21:30:00,
2013-02-27 16:35:00,53.6,35.9,29.79,NNE,32,11.0,14.0,51,0.00,,---,0.00,VWS V14.01,2013-02-27 21:35:00,
2013-02-27 16:40:00,54.1,35.9,29.79,NE,44,7.0,12.0,50,0.00,,---,0.00,VWS V14.01,2013-02-27 21:40:00,
2013-02-27 16:45:00,53.9,36.2,29.80,ENE,64,8.0,16.0,51,0.00,,---,0.00,VWS V14.01,2013-02-27 21:45:00,
2013-02-27 16:50:00,54.0,35.3,29.80,ENE,72,4.0,4.0,49,0.00,,---,0.00,VWS V14.01,2013-02-27 21:50:00,
2013-02-27 16:55:00,52.5,35.9,29.80,NNW,338,0.0,10.0,53,0.00,,---,0.00,VWS V14.01,2013-02-27 21:55:00,
2013-02-27 16:56:00,53.9,34.7,29.80,NNE,31,6.0,7.0,48,0.00,,---,0.00,VWS V14.01,2013-02-27 21:56:00,
2013-02-27 17:00:00,52.7,35.6,29.79,NE,49,12.0,13.0,52,0.00,,---,0.00,VWS V14.01,2013-02-27 22:00:00,
2013-02-27 17:01:00,54.0,35.3,29.79,NNE,25,9.0,14.0,49,0.00,,---,0.00,VWS V14.01,2013-02-27 22:01:00,
2013-02-27 17:05:00,53.2,36.0,29.79,ENE,64,3.0,14.0,52,0.00,,---,0.00,VWS V14.01,2013-02-27 22:05:00,
2013-02-27 17:06:00,53.4,33.7,29.79,East,89,9.0,9.0,47,0.00,,---,0.00,VWS V14.01,2013-02-27 22:06:00,
2013-02-27 17:10:00,53.6,35.9,29.79,NE,52,10.0,15.0,51,0.00,,---,0.00,VWS V14.01,2013-02-27 22:10:00,
2013-02-27 17:11:00,52.8,34.2,29.80,NE,37,4.0,5.0,49,0.00,,---,0.00,VWS V14.01,2013-02-27 22:11:00,
2013-02-27 17:15:00,53.7,36.5,29.79,NNE,32,3.0,10.0,52,0.00,,---,0.00,VWS V14.01,2013-02-27 22:15:00,
2013-02-27 17:16:00,52.3,33.7,29.80,ENE,70,5.0,7.0,49,0.00,,---,0.00,VWS V14.01,2013-02-27 22:16:00,
2013-02-27 17:20:00,54.3,36.1,29.79,East,96,5.0,17.0,50,0.00,,---,0.00,VWS V14.01,2013-02-27 22:20:00,
2013-02-27 17:21:00,52.0,34.5,29.80,ENE,67,2.0,6.0,51,0.00,,---,0.00,VWS V14.01,2013-02-27 22:21:00,
2013-02-27 17:25:00,54.3,36.1,29.79,North,359,13.0,14.0,50,0.00,,---,0.00,VWS V14.01,2013-02-27 22:25:00,
2013-02-27 17:26:00,51.9,34.4,29.80,East,86,8.0,9.0,51,0.00,,---,0.00,VWS V14.01,2013-02-27 22:26:00,
2013-02-27 17:30:00,53.8,36.1,29.79,ENE,65,6.0,18.0,51,0.00,,---,0.00,VWS V14.01,2013-02-27 22:30:00,
2013-02-27 17:31:00,51.6,34.1,29.80,ENE,65,6.0,6.0,51,0.00,,---,0.00,VWS V14.01,2013-02-27 22:31:00,
2013-02-27 17:35:00,53.6,35.9,29.79,East,83,7.0,14.0,51,0.00,,---,0.00,VWS V14.01,2013-02-27 22:35:00,
2013-02-27 17:36:00,51.5,34.5,29.80,East,90,3.0,4.0,52,0.00,,---,0.00,VWS V14.01,2013-02-27 22:36:00,
2013-02-27 17:40:00,54.1,35.9,29.79,NE,44,7.0,12.0,50,0.00,,---,0.00,VWS V14.01,2013-02-27 22:40:00,
2013-02-27 17:41:00,51.4,34.4,29.80,NE,49,3.0,8.0,52,0.00,,---,0.00,VWS V14.01,2013-02-27 22:41:00,
2013-02-27 17:45:00,53.9,36.2,29.80,ENE,64,8.0,16.0,51,0.00,,---,0.00,VWS V14.01,2013-02-27 22:45:00,
2013-02-27 17:46:00,51.2,34.7,29.80,East,99,4.0,4.0,53,0.00,,---,0.00,VWS V14.01,2013-02-27 22:46:00,
2013-02-27 17:50:00,54.0,35.3,29.79,East,82,4.0,18.0,49,0.00,,---,0.00,VWS V14.01,2013-02-27 22:50:00,
2013-02-27 17:51:00,51.0,34.5,29.80,ENE,74,2.0,6.0,53,0.00,,---,0.00,VWS V14.01,2013-02-27 22:51:00,
2013-02-27 17:55:00,53.9,34.7,29.79,East,80,7.0,15.0,48,0.00,,---,0.00,VWS V14.01,2013-02-27 22:55:00,
2013-02-27 17:56:00,51.0,34.5,29.81,NNW,334,1.0,2.0,53,0.00,,---,0.00,VWS V14.01,2013-02-27 22:56:00,
2013-02-27 18:00:00,54.0,35.3,29.79,ENE,60,14.0,14.0,49,0.00,,---,0.00,VWS V14.01,2013-02-27 23:00:00,
2013-02-27 18:01:00,50.8,34.8,29.81,SSW,212,1.0,2.0,54,0.00,,---,0.00,VWS V14.01,2013-02-27 23:01:00,
2013-02-27 18:05:00,53.4,33.7,29.79,North,356,9.0,24.0,47,0.00,,---,0.00,VWS V14.01,2013-02-27 23:05:00,
2013-02-27 18:06:00,50.6,35.0,29.81,East,99,4.0,5.0,55,0.00,,---,0.00,VWS V14.01,2013-02-27 23:06:00,
2013-02-27 18:10:00,52.8,34.2,29.80,ESE,122,5.0,16.0,49,0.00,,---,0.00,VWS V14.01,2013-02-27 23:10:00,
2013-02-27 18:11:00,50.4,34.4,29.82,East,95,5.0,10.0,54,0.00,,---,0.00,VWS V14.01,2013-02-27 23:11:00,
2013-02-27 18:15:00,52.3,33.7,29.80,NNE,32,7.0,22.0,49,0.00,,---,0.00,VWS V14.01,2013-02-27 23:15:00,
2013-02-27 18:16:00,50.3,34.8,29.82,North,11,2.0,7.0,55,0.00,,---,0.00,VWS V14.01,2013-02-27 23:16:00,
2013-02-27 18:20:00,52.0,34.5,29.80,East,88,6.0,11.0,51,0.00,,---,0.00,VWS V14.01,2013-02-27 23:20:00,
2013-02-27 18:21:00,50.1,34.6,29.81,NNW,332,5.0,5.0,55,0.00,,---,0.00,VWS V14.01,2013-02-27 23:21:00,
2013-02-27 18:25:00,51.9,34.4,29.80,SE,124,8.0,16.0,51,0.00,,---,0.00,VWS V14.01,2013-02-27 23:25:00,
2013-02-27 18:26:00,50.0,34.9,29.82,NE,45,0.0,1.0,56,0.00,,---,0.00,VWS V14.01,2013-02-27 23:26:00,
2013-02-27 18:30:00,51.6,34.1,29.80,ENE,76,6.0,9.0,51,0.00,,---,0.00,VWS V14.01,2013-02-27 23:30:00,
2013-02-27 18:31:00,49.8,34.8,29.82,NE,37,0.0,1.0,56,0.00,,---,0.00,VWS V14.01,2013-02-27 23:31:00,
2013-02-27 18:35:00,51.5,34.5,29.80,East,96,3.0,11.0,52,0.00,,---,0.00,VWS V14.01,2013-02-27 23:35:00,
2013-02-27 18:36:00,49.6,35.0,29.82,SE,135,2.0,3.0,57,0.00,,---,0.00,VWS V14.01,2013-02-27 23:36:00,
2013-02-27 18:40:00,51.4,34.4,29.80,ESE,110,8.0,13.0,52,0.00,,---,0.00,VWS V14.01,2013-02-27 23:40:00,
2013-02-27 18:41:00,49.4,35.3,29.82,SSW,207,1.0,3.0,58,0.00,,---,0.00,VWS V14.01,2013-02-27 23:41:00,
2013-02-27 18:45:00,51.2,34.7,29.80,ENE,72,4.0,10.0,53,0.00,,---,0.00,VWS V14.01,2013-02-27 23:45:00,
2013-02-27 18:46:00,49.1,35.4,29.83,East,101,2.0,3.0,59,0.00,,---,0.00,VWS V14.01,2013-02-27 23:46:00,
2013-02-27 18:50:00,51.0,34.0,29.80,SE,132,6.0,9.0,52,0.00,,---,0.00,VWS V14.01,2013-02-27 23:50:00,
2013-02-27 18:51:00,48.9,35.6,29.83,WSW,249,1.0,4.0,60,0.00,,---,0.00,VWS V14.01,2013-02-27 23:51:00,
2013-02-27 18:55:00,51.0,34.5,29.81,SE,139,2.0,8.0,53,0.00,,---,0.00,VWS V14.01,2013-02-27 23:55:00,
2013-02-27 18:56:00,48.7,35.9,29.83,ENE,73,2.0,3.0,61,0.00,,---,0.00,VWS V14.01,2013-02-27 23:56:00,
2013-02-27 19:00:00,50.8,34.8,29.81,ENE,67,2.0,7.0,54,0.00,,---,0.00,VWS V14.01,2013-02-28 00:00:00,
2013-02-27 19:01:00,48.5,36.5,29.83,ESE,111,6.0,6.0,63,0.00,,---,0.00,VWS V14.01,2013-02-28 00:01:00,
2013-02-27 19:05:00,50.6,35.0,29.81,East,95,1.0,9.0,55,0.00,,---,0.00,VWS V14.01,2013-02-28 00:05:00,
2013-02-27 19:06:00,48.2,36.6,29.84,NNE,29,1.0,4.0,64,0.00,,---,0.00,VWS V14.01,2013-02-28 00:06:00,
2013-02-27 19:10:00,50.4,34.4,29.82,East,89,7.0,8.0,54,0.00,,---,0.00,VWS V14.01,2013-02-28 00:10:00,
2013-02-27 19:11:00,48.0,36.4,29.84,NE,52,2.0,2.0,64,0.00,,---,0.00,VWS V14.01,2013-02-28 00:11:00,
2013-02-27 19:15:00,50.3,34.8,29.82,NE,47,7.0,10.0,55,0.00,,---,0.00,VWS V14.01,2013-02-28 00:15:00,
2013-02-27 19:16:00,47.8,36.2,29.83,East,86,1.0,3.0,64,0.00,,---,0.00,VWS V14.01,2013-02-28 00:16:00,
2013-02-27 19:20:00,50.1,34.6,29.81,NNE,29,2.0,11.0,55,0.00,,---,0.00,VWS V14.01,2013-02-28 00:20:00,
2013-02-27 19:21:00,47.6,36.4,29.83,NW,326,0.0,2.0,65,0.00,,---,0.00,VWS V14.01,2013-02-28 00:21:00,
2013-02-27 19:25:00,50.0,34.9,29.82,NE,45,1.0,5.0,56,0.00,,---,0.00,VWS V14.01,2013-02-28 00:25:00,
2013-02-27 19:26:00,47.4,36.6,29.84,East,95,7.0,7.0,66,0.00,,---,0.00,VWS V14.01,2013-02-28 00:26:00,
2013-02-27 19:30:00,49.8,34.8,29.82,NE,37,1.0,8.0,56,0.00,,---,0.00,VWS V14.01,2013-02-28 00:30:00,
2013-02-27 19:31:00,47.3,36.2,29.84,SE,139,2.0,6.0,65,0.00,,---,0.00,VWS V14.01,2013-02-28 00:31:00,
2013-02-27 19:35:00,49.6,35.0,29.83,ENE,77,0.0,8.0,57,0.00,,---,0.00,VWS V14.01,2013-02-28 00:35:00,
2013-02-27 19:36:00,47.3,36.2,29.84,ESE,114,5.0,5.0,65,0.00,,---,0.00,VWS V14.01,2013-02-28 00:36:00,
2013-02-27 19:40:00,49.4,35.3,29.82,ENE,73,2.0,10.0,58,0.00,,---,0.00,VWS V14.01,2013-02-28 00:40:00,
2013-02-27 19:41:00,47.1,36.0,29.84,ESE,102,1.0,4.0,65,0.00,,---,0.00,VWS V14.01,2013-02-28 00:41:00,
2013-02-27 19:45:00,49.1,35.4,29.83,SSE,153,2.0,7.0,59,0.00,,---,0.00,VWS V14.01,2013-02-28 00:45:00,
2013-02-27 19:46:00,46.9,35.8,29.84,ESE,110,4.0,5.0,65,0.00,,---,0.00,VWS V14.01,2013-02-28 00:46:00,
2013-02-27 19:50:00,48.9,35.6,29.83,WSW,242,4.0,9.0,60,0.00,,---,0.00,VWS V14.01,2013-02-28 00:50:00,
2013-02-27 19:51:00,46.6,35.1,29.84,East,79,4.0,11.0,64,0.00,,---,0.00,VWS V14.01,2013-02-28 00:51:00,
2013-02-27 19:55:00,48.7,35.9,29.83,South,181,1.0,5.0,61,0.00,,---,0.00,VWS V14.01,2013-02-28 00:55:00,
2013-02-27 19:56:00,46.6,35.1,29.84,SW,233,2.0,7.0,64,0.00,,---,0.00,VWS V14.01,2013-02-28 00:56:00,
2013-02-27 20:00:00,48.5,36.1,29.83,West,259,0.0,12.0,62,0.00,,---,0.00,VWS V14.01,2013-02-28 01:00:00,
2013-02-27 20:01:00,46.4,34.9,29.84,ENE,63,2.0,9.0,64,0.00,,---,0.00,VWS V14.01,2013-02-28 01:01:00,
2013-02-27 20:05:00,48.2,36.6,29.84,ESE,121,3.0,6.0,64,0.00,,---,0.00,VWS V14.01,2013-02-28 01:05:00,
2013-02-27 20:06:00,46.2,34.7,29.84,SSW,193,2.0,6.0,64,0.00,,---,0.00,VWS V14.01,2013-02-28 01:06:00,
2013-02-27 20:10:00,48.0,36.4,29.84,NNW,328,2.0,9.0,64,0.00,,---,0.00,VWS V14.01,2013-02-28 01:10:00,
2013-02-27 20:11:00,46.0,34.5,29.84,SE,142,3.0,3.0,64,0.00,,---,0.00,VWS V14.01,2013-02-28 01:11:00,
2013-02-27 20:15:00,47.8,36.2,29.83,East,92,3.0,9.0,64,0.00,,---,0.00,VWS V14.01,2013-02-28 01:15:00,
2013-02-27 20:16:00,45.8,34.3,29.85,NE,56,1.0,1.0,64,0.00,,---,0.00,VWS V14.01,2013-02-28 01:16:00,
2013-02-27 20:20:00,47.6,36.4,29.84,SSE,166,1.0,6.0,65,0.00,,---,0.00,VWS V14.01,2013-02-28 01:20:00,
2013-02-27 20:21:00,45.6,34.5,29.85,ENE,62,1.0,6.0,65,0.00,,---,0.00,VWS V14.01,2013-02-28 01:21:00,
2013-02-27 20:25:00,47.4,36.6,29.83,NE,34,1.0,13.0,66,0.00,,---,0.00,VWS V14.01,2013-02-28 01:25:00,
2013-02-27 20:26:00,45.4,34.0,29.85,SE,141,1.0,5.0,64,0.00,,---,0.00,VWS V14.01,2013-02-28 01:26:00,
2013-02-27 20:30:00,47.3,36.2,29.84,SE,146,6.0,11.0,65,0.00,,---,0.00,VWS V14.01,2013-02-28 01:30:00,
2013-02-27 20:31:00,45.2,34.2,29.85,WSW,246,4.0,4.0,65,0.00,,---,0.00,VWS V14.01,2013-02-28 01:31:00,
2013-02-27 20:35:00,47.3,36.2,29.84,East,91,3.0,9.0,65,0.00,,---,0.00,VWS V14.01,2013-02-28 01:35:00,
2013-02-27 20:36:00,44.8,34.2,29.85,SE,139,3.0,3.0,66,0.00,,---,0.00,VWS V14.01,2013-02-28 01:36:00,
2013-02-27 20:40:00,47.2,36.0,29.84,East,88,4.0,10.0,65,0.00,,---,0.00,VWS V14.01,2013-02-28 01:40:00,
2013-02-27 20:41:00,44.7,34.0,29.85,ESE,109,2.0,7.0,66,0.00,,---,0.00,VWS V14.01,2013-02-28 01:41:00,
2013-02-27 20:45:00,47.0,35.9,29.84,ENE,74,1.0,13.0,65,0.00,,---,0.00,VWS V14.01,2013-02-28 01:45:00,
2013-02-27 20:46:00,44.3,34.0,29.85,East,100,6.0,6.0,67,0.00,,---,0.00,VWS V14.01,2013-02-28 01:46:00,
2013-02-27 20:50:00,46.6,35.5,29.85,ESE,104,10.0,10.0,65,0.00,,---,0.00,VWS V14.01,2013-02-28 01:50:00,
2013-02-27 20:51:00,44.2,34.0,29.86,East,86,0.0,3.0,67,0.00,,---,0.00,VWS V14.01,2013-02-28 01:51:00,
2013-02-27 20:55:00,46.6,35.1,29.84,ENE,58,3.0,11.0,64,0.00,,---,0.00,VWS V14.01,2013-02-28 01:55:00,
2013-02-27 20:56:00,43.9,34.0,29.86,ESE,104,5.0,5.0,68,0.00,,---,0.00,VWS V14.01,2013-02-28 01:56:00,
2013-02-27 21:00:00,46.5,35.0,29.84,ESE,121,9.0,12.0,64,0.00,,---,0.00,VWS V14.01,2013-02-28 02:00:00,
2013-02-27 21:01:00,43.7,33.8,29.86,East,99,4.0,9.0,68,0.00,,---,0.00,VWS V14.01,2013-02-28 02:01:00,
2013-02-27 21:05:00,46.2,34.7,29.84,SE,125,6.0,9.0,64,0.00,,---,0.00,VWS V14.01,2013-02-28 02:05:00,
2013-02-27 21:06:00,43.6,33.8,29.86,ESE,110,4.0,6.0,68,0.00,,---,0.00,VWS V14.01,2013-02-28 02:06:00,
2013-02-27 21:10:00,46.1,34.6,29.84,East,79,3.0,12.0,64,0.00,,---,0.00,VWS V14.01,2013-02-28 02:10:00,
2013-02-27 21:11:00,43.4,33.9,29.85,East,98,7.0,14.0,69,0.00,,---,0.00,VWS V14.01,2013-02-28 02:11:00,
2013-02-27 21:15:00,45.9,34.4,29.85,ENE,57,1.0,9.0,64,0.00,,---,0.00,VWS V14.01,2013-02-28 02:15:00,
2013-02-27 21:16:00,43.2,33.7,29.86,East,91,5.0,5.0,69,0.00,,---,0.00,VWS V14.01,2013-02-28 02:16:00,
2013-02-27 21:20:00,45.6,34.5,29.85,East,96,5.0,10.0,65,0.00,,---,0.00,VWS V14.01,2013-02-28 02:20:00,
2013-02-27 21:21:00,43.0,33.5,29.86,NE,37,0.0,0.0,69,0.00,,---,0.00,VWS V14.01,2013-02-28 02:21:00,
2013-02-27 21:25:00,45.5,34.4,29.85,ESE,112,1.0,8.0,65,0.00,,---,0.00,VWS V14.01,2013-02-28 02:25:00,
2013-02-27 21:26:00,42.8,33.0,29.86,ESE,115,7.0,20.0,68,0.00,,---,0.00,VWS V14.01,2013-02-28 02:26:00,
2013-02-27 21:30:00,45.3,34.2,29.85,South,187,0.0,6.0,65,0.00,,---,0.00,VWS V14.01,2013-02-28 02:30:00,
2013-02-27 21:31:00,42.7,33.2,29.86,East,101,1.0,3.0,69,0.00,,---,0.00,VWS V14.01,2013-02-28 02:31:00,
2013-02-27 21:35:00,44.9,34.2,29.85,SE,135,1.0,4.0,66,0.00,,---,0.00,VWS V14.01,2013-02-28 02:35:00,
2013-02-27 21:36:00,42.5,33.1,29.87,ESE,110,5.0,6.0,69,0.00,,---,0.00,VWS V14.01,2013-02-28 02:36:00,
2013-02-27 21:40:00,44.7,34.0,29.85,ESE,117,6.0,11.0,66,0.00,,---,0.00,VWS V14.01,2013-02-28 02:40:00,
2013-02-27 21:41:00,42.4,33.0,29.87,NE,44,2.0,12.0,69,0.00,,---,0.00,VWS V14.01,2013-02-28 02:41:00,
2013-02-27 21:45:00,44.4,34.1,29.85,WSW,248,2.0,7.0,67,0.00,,---,0.00,VWS V14.01,2013-02-28 02:45:00,
2013-02-27 21:46:00,42.3,32.5,29.87,NNE,26,2.0,9.0,68,0.00,,---,0.00,VWS V14.01,2013-02-28 02:46:00,
2013-02-27 21:50:00,44.3,34.0,29.86,East,82,2.0,13.0,67,0.00,,---,0.00,VWS V14.01,2013-02-28 02:50:00,
2013-02-27 21:51:00,42.2,32.4,29.87,ESE,113,3.0,9.0,68,0.00,,---,0.00,VWS V14.01,2013-02-28 02:51:00,
2013-02-27 21:55:00,44.0,34.1,29.86,SE,127,5.0,9.0,68,0.00,,---,0.00,VWS V14.01,2013-02-28 02:55:00,
2013-02-27 21:56:00,42.1,32.3,29.87,NNW,329,1.0,2.0,68,0.00,,---,0.00,VWS V14.01,2013-02-28 02:56:00,
2013-02-27 22:00:00,43.7,33.8,29.86,ESE,118,5.0,14.0,68,0.00,,---,0.00,VWS V14.01,2013-02-28 03:00:00,
2013-02-27 22:01:00,41.8,32.0,29.88,NE,46,0.0,4.0,68,0.00,,---,0.00,VWS V14.01,2013-02-28 03:01:00,
2013-02-27 22:05:00,43.6,33.8,29.86,East,85,2.0,15.0,68,0.00,,---,0.00,VWS V14.01,2013-02-28 03:05:00,
2013-02-27 22:06:00,41.7,31.9,29.88,NW,304,1.0,3.0,68,0.00,,---,0.00,VWS V14.01,2013-02-28 03:06:00,
2013-02-27 22:10:00,43.4,33.9,29.86,SE,134,4.0,8.0,69,0.00,,---,0.00,VWS V14.01,2013-02-28 03:10:00,
2013-02-27 22:11:00,41.6,32.2,29.88,NNE,22,1.0,5.0,69,0.00,,---,0.00,VWS V14.01,2013-02-28 03:11:00,
2013-02-27 22:15:00,43.2,33.7,29.86,SSE,155,0.0,14.0,69,0.00,,---,0.00,VWS V14.01,2013-02-28 03:15:00,
2013-02-27 22:16:00,41.4,32.0,29.88,SE,141,3.0,5.0,69,0.00,,---,0.00,VWS V14.01,2013-02-28 03:16:00,
2013-02-27 22:20:00,43.0,33.5,29.86,NE,37,0.0,12.0,69,0.00,,---,0.00,VWS V14.01,2013-02-28 03:20:00,
2013-02-27 22:21:00,41.3,31.9,29.88,ENE,62,5.0,7.0,69,0.00,,---,0.00,VWS V14.01,2013-02-28 03:21:00,
2013-02-27 22:25:00,42.8,33.3,29.86,ESE,102,20.0,20.0,69,0.00,,---,0.00,VWS V14.01,2013-02-28 03:25:00,
2013-02-27 22:26:00,41.2,31.8,29.89,SE,125,1.0,6.0,69,0.00,,---,0.00,VWS V14.01,2013-02-28 03:26:00,
2013-02-27 22:30:00,42.8,33.3,29.86,North,11,0.0,20.0,69,0.00,,---,0.00,VWS V14.01,2013-02-28 03:30:00,
2013-02-27 22:31:00,41.2,31.8,29.88,ENE,70,4.0,4.0,69,0.00,,---,0.00,VWS V14.01,2013-02-28 03:31:00,
2013-02-27 22:35:00,42.5,33.1,29.86,East,96,5.0,11.0,69,0.00,,---,0.00,VWS V14.01,2013-02-28 03:35:00,
2013-02-27 22:36:00,41.1,31.7,29.89,ENE,62,8.0,11.0,69,0.00,,---,0.00,VWS V14.01,2013-02-28 03:36:00,
2013-02-27 22:40:00,42.4,33.0,29.87,ENE,74,2.0,11.0,69,0.00,,---,0.00,VWS V14.01,2013-02-28 03:40:00,
2013-02-27 22:41:00,41.2,31.8,29.88,NE,45,7.0,10.0,69,0.00,,---,0.00,VWS V14.01,2013-02-28 03:41:00,
2013-02-27 22:45:00,42.3,32.5,29.87,ENE,65,9.0,14.0,68,0.00,,---,0.00,VWS V14.01,2013-02-28 03:45:00,
2013-02-27 22:46:00,41.2,31.8,29.88,NE,37,4.0,4.0,69,0.00,,---,0.00,VWS V14.01,2013-02-28 03:46:00,
2013-02-27 22:50:00,42.3,32.5,29.87,ENE,74,8.0,14.0,68,0.00,,---,0.00,VWS V14.01,2013-02-28 03:50:00,
2013-02-27 22:51:00,41.2,31.8,29.88,NNE,18,1.0,1.0,69,0.00,,---,0.00,VWS V14.01,2013-02-28 03:51:00,
2013-02-27 22:55:00,42.1,32.3,29.87,WNW,301,0.0,10.0,68,0.00,,---,0.00,VWS V14.01,2013-02-28 03:55:00,
2013-02-27 22:56:00,41.2,31.8,29.88,North,4,7.0,7.0,69,0.00,,---,0.00,VWS V14.01,2013-02-28 03:56:00,
2013-02-27 23:00:00,41.8,32.0,29.88,NNE,22,4.0,7.0,68,0.00,,---,0.00,VWS V14.01,2013-02-28 04:00:00,
2013-02-27 23:01:00,41.4,31.6,29.88,ESE,104,1.0,3.0,68,0.00,,---,0.00,VWS V14.01,2013-02-28 04:01:00,
2013-02-27 23:05:00,41.7,31.9,29.88,NE,34,2.0,10.0,68,0.00,,---,0.00,VWS V14.01,2013-02-28 04:05:00,
2013-02-27 23:06:00,41.5,31.7,29.88,NE,52,0.0,8.0,68,0.00,,---,0.00,VWS V14.01,2013-02-28 04:06:00,
2013-02-27 23:10:00,41.6,31.8,29.88,ESE,110,5.0,10.0,68,0.00,,---,0.00,VWS V14.01,2013-02-28 04:10:00,
2013-02-27 23:11:00,41.5,31.4,29.88,East,90,10.0,16.0,67,0.00,,---,0.00,VWS V14.01,2013-02-28 04:11:00,
2013-02-27 23:15:00,41.4,32.0,29.88,NW,321,2.0,8.0,69,0.00,,---,0.00,VWS V14.01,2013-02-28 04:15:00,
2013-02-27 23:16:00,41.7,30.8,29.87,ENE,60,6.0,10.0,65,0.00,,---,0.00,VWS V14.01,2013-02-28 04:16:00,
2013-02-27 23:20:00,41.3,31.9,29.88,East,79,1.0,9.0,69,0.00,,---,0.00,VWS V14.01,2013-02-28 04:20:00,
2013-02-27 23:22:00,41.9,31.0,29.87,ESE,118,3.0,6.0,65,0.00,,---,0.00,VWS V14.01,2013-02-28 04:22:00,
2013-02-27 23:25:00,41.3,31.9,29.88,ENE,66,6.0,10.0,69,0.00,,---,0.00,VWS V14.01,2013-02-28 04:25:00,
2013-02-27 23:27:00,41.9,31.0,29.87,ENE,70,4.0,7.0,65,0.00,,---,0.00,VWS V14.01,2013-02-28 04:27:00,
2013-02-27 23:30:00,41.2,31.8,29.89,ESE,109,1.0,11.0,69,0.00,,---,0.00,VWS V14.01,2013-02-28 04:30:00,
2013-02-27 23:32:00,41.9,30.6,29.87,NNE,22,3.0,5.0,64,0.00,,---,0.00,VWS V14.01,2013-02-28 04:32:00,
2013-02-27 23:35:00,41.2,31.8,29.88,ENE,69,1.0,7.0,69,0.00,,---,0.00,VWS V14.01,2013-02-28 04:35:00,
2013-02-27 23:37:00,42.0,31.1,29.88,North,357,1.0,11.0,65,0.00,,---,0.00,VWS V14.01,2013-02-28 04:37:00,
2013-02-27 23:40:00,41.2,31.8,29.88,NE,50,2.0,15.0,69,0.00,,---,0.00,VWS V14.01,2013-02-28 04:40:00,
2013-02-27 23:42:00,41.9,31.4,29.88,NE,53,7.0,14.0,66,0.00,,---,0.00,VWS V14.01,2013-02-28 04:42:00,
2013-02-27 23:45:00,41.2,31.8,29.88,NNE,30,2.0,10.0,69,0.00,,---,0.00,VWS V14.01,2013-02-28 04:45:00,
2013-02-27 23:47:00,41.6,31.5,29.89,WNW,301,4.0,11.0,67,0.00,,---,0.00,VWS V14.01,2013-02-28 04:47:00,
2013-02-27 23:50:00,41.2,31.8,29.88,NNE,17,0.0,11.0,69,0.00,,---,0.00,VWS V14.01,2013-02-28 04:50:00,
2013-02-27 23:52:00,41.2,30.7,29.89,ESE,106,3.0,5.0,66,0.00,,---,0.00,VWS V14.01,2013-02-28 04:52:00,
2013-02-27 23:55:00,41.2,31.8,29.88,ENE,59,3.0,7.0,69,0.00,,---,0.00,VWS V14.01,2013-02-28 04:55:00,
2013-02-27 23:57:00,40.9,30.4,29.89,ENE,62,5.0,9.0,66,0.00,,---,0.00,VWS V14.01,2013-02-28 04:57:00,